Previsão horária em Aabenraa

Hoje, 11 Abril, Domingo

Tempo Temperatura Precipitação Vento Pressão Humidade
00:00 +2°C° 0 mm 3 m/s 756 mmHg 66%
01:00 +2°C° 0 mm 3 m/s 756 mmHg 67%
02:00 +1°C° 0.2 mm 4 m/s 755 mmHg 73%
03:00 0°C° 0.2 mm 4 m/s 755 mmHg 78%
04:00 0°C° 0.2 mm 5 m/s 755 mmHg 84%
05:00 -1°C° 0.9 mm 5 m/s 754 mmHg 88%
06:00 -2°C° 0.9 mm 6 m/s 754 mmHg 93%
07:00 -2°C° 0.9 mm 7 m/s 754 mmHg 97%
08:00 -2°C° 0.8 mm 7 m/s 754 mmHg 97%
09:00 -2°C° 0.8 mm 7 m/s 754 mmHg 97%
10:00 -2°C° 0.8 mm 7 m/s 753 mmHg 97%
11:00 -2°C° 0.3 mm 7 m/s 754 mmHg 97%
12:00 -1°C° 0.3 mm 7 m/s 754 mmHg 96%
13:00 -1°C° 0.3 mm 6 m/s 754 mmHg 96%
14:00 -1°C° 0.1 mm 6 m/s 754 mmHg 96%
15:00 -1°C° 0.1 mm 6 m/s 755 mmHg 96%
16:00 0°C° 0.1 mm 5 m/s 755 mmHg 95%
17:00 0°C° 0.1 mm 5 m/s 755 mmHg 94%
18:00 0°C° 0.1 mm 5 m/s 756 mmHg 92%
19:00 0°C° 0.1 mm 5 m/s 756 mmHg 90%
20:00 0°C° 0 mm 5 m/s 756 mmHg 90%
21:00 0°C° 0 mm 5 m/s 757 mmHg 90%
22:00 -1°C° 0 mm 5 m/s 757 mmHg 90%
23:00 -1°C° 0 mm 4 m/s 758 mmHg 90%

Amanhã, 12 Abril, Segunda-feira

Tempo Temperatura Precipitação Vento Pressão Humidade
00:00 -2°C° 0 mm 4 m/s 758 mmHg 90%
01:00 -3°C° 0 mm 4 m/s 758 mmHg 89%
02:00 -2°C° 0 mm 4 m/s 758 mmHg 88%
03:00 -2°C° 0 mm 4 m/s 759 mmHg 87%
04:00 -2°C° 0 mm 4 m/s 759 mmHg 85%
05:00 -2°C° 0 mm 4 m/s 759 mmHg 84%
06:00 -1°C° 0 mm 4 m/s 760 mmHg 82%
07:00 0°C° 0 mm 4 m/s 760 mmHg 80%
08:00 +1°C° 0 mm 4 m/s 760 mmHg 74%
09:00 +2°C° 0 mm 5 m/s 760 mmHg 69%
10:00 +3°C° 0 mm 5 m/s 761 mmHg 63%
11:00 +3°C° 0.1 mm 6 m/s 761 mmHg 59%
12:00 +4°C° 0.1 mm 6 m/s 761 mmHg 56%
13:00 +4°C° 0.1 mm 7 m/s 761 mmHg 52%
14:00 +4°C° 0 mm 7 m/s 761 mmHg 52%
15:00 +4°C° 0 mm 7 m/s 761 mmHg 52%
16:00 +4°C° 0 mm 7 m/s 761 mmHg 52%
17:00 +3°C° 0 mm 6 m/s 762 mmHg 58%
18:00 +2°C° 0 mm 6 m/s 762 mmHg 65%
19:00 +1°C° 0 mm 5 m/s 762 mmHg 71%
20:00 0°C° 0 mm 5 m/s 762 mmHg 75%
21:00 0°C° 0 mm 4 m/s 762 mmHg 80%
22:00 -1°C° 0 mm 4 m/s 763 mmHg 85%
23:00 -1°C° 0 mm 4 m/s 763 mmHg 86%

Depois de amanhã, 13 Abril, Terça-feira

Tempo Temperatura Precipitação Vento Pressão Humidade
00:00 -1°C° 0 mm 4 m/s 763 mmHg 86%
01:00 -1°C° 0 mm 4 m/s 763 mmHg 87%
02:00 -1°C° 0 mm 4 m/s 763 mmHg 89%
03:00 -1°C° 0 mm 4 m/s 763 mmHg 90%
04:00 0°C° 0 mm 3 m/s 763 mmHg 92%
05:00 0°C° 0 mm 4 m/s 763 mmHg 89%
06:00 0°C° 0 mm 4 m/s 764 mmHg 87%
07:00 +1°C° 0 mm 5 m/s 764 mmHg 84%
08:00 +2°C° 0 mm 5 m/s 764 mmHg 75%
09:00 +3°C° 0 mm 6 m/s 765 mmHg 65%
10:00 +5°C° 0 mm 6 m/s 765 mmHg 56%
11:00 +5°C° 0 mm 6 m/s 765 mmHg 53%
12:00 +7°C° 0 mm 6 m/s 765 mmHg 50%
13:00 +7°C° 0 mm 6 m/s 766 mmHg 47%
14:00 +7°C° 0 mm 6 m/s 766 mmHg 49%
15:00 +5°C° 0 mm 6 m/s 766 mmHg 50%
16:00 +5°C° 0 mm 6 m/s 766 mmHg 52%
17:00 +4°C° 0 mm 6 m/s 766 mmHg 57%
18:00 +3°C° 0 mm 6 m/s 766 mmHg 63%
19:00 +2°C° 0 mm 5 m/s 766 mmHg 68%
20:00 +1°C° 0 mm 5 m/s 767 mmHg 73%
21:00 0°C° 0 mm 4 m/s 767 mmHg 78%
22:00 0°C° 0 mm 4 m/s 767 mmHg 83%
23:00 -1°C° 0 mm 4 m/s 767 mmHg 86%

14 Abril, Quarta-feira

Tempo Temperatura Precipitação Vento Pressão Humidade
00:00 0°C° 0 mm 3 m/s 767 mmHg 88%
01:00 0°C° 0 mm 3 m/s 767 mmHg 90%
02:00 0°C° 0 mm 3 m/s 767 mmHg 91%
03:00 -1°C° 0 mm 3 m/s 767 mmHg 92%
04:00 -1°C° 0 mm 3 m/s 768 mmHg 93%
05:00 0°C° 0 mm 3 m/s 768 mmHg 90%
06:00 0°C° 0 mm 3 m/s 768 mmHg 86%
07:00 +1°C° 0 mm 3 m/s 768 mmHg 83%
08:00 +3°C° 0 mm 3 m/s 769 mmHg 75%
09:00 +4°C° 0 mm 3 m/s 769 mmHg 66%
10:00 +5°C° 0 mm 3 m/s 769 mmHg 57%
11:00 +7°C° 0.1 mm 2 m/s 769 mmHg 53%
12:00 +8°C° 0.1 mm 2 m/s 769 mmHg 48%
13:00 +8°C° 0.1 mm 2 m/s 769 mmHg 44%
14:00 +8°C° 0 mm 2 m/s 769 mmHg 44%
15:00 +8°C° 0 mm 2 m/s 769 mmHg 45%
16:00 +8°C° 0 mm 2 m/s 769 mmHg 45%
17:00 +7°C° 0 mm 2 m/s 769 mmHg 52%
18:00 +6°C° 0 mm 2 m/s 769 mmHg 58%
19:00 +5°C° 0 mm 2 m/s 769 mmHg 65%
20:00 +4°C° 0 mm 2 m/s 770 mmHg 65%
21:00 +3°C° 0 mm 2 m/s 770 mmHg 65%
22:00 +2°C° 0 mm 2 m/s 770 mmHg 65%
23:00 +2°C° 0 mm 2 m/s 770 mmHg 65%

15 Abril, Quinta-feira

Tempo Temperatura Precipitação Vento Pressão Humidade
00:00 +2°C° 0 mm 2 m/s 770 mmHg 66%
01:00 +2°C° 0 mm 2 m/s 770 mmHg 66%
02:00 0°C° 0 mm 3 m/s 770 mmHg 67%
03:00 0°C° 0 mm 3 m/s 770 mmHg 67%
04:00 0°C° 0 mm 3 m/s 770 mmHg 68%
05:00 +1°C° 0 mm 3 m/s 771 mmHg 69%
06:00 +1°C° 0 mm 3 m/s 771 mmHg 70%
07:00 +1°C° 0 mm 4 m/s 771 mmHg 71%
08:00 +3°C° 0 mm 4 m/s 771 mmHg 65%
09:00 +5°C° 0 mm 5 m/s 771 mmHg 59%
10:00 +5°C° 0 mm 6 m/s 772 mmHg 53%
11:00 +7°C° 0 mm 6 m/s 772 mmHg 50%
12:00 +7°C° 0 mm 6 m/s 772 mmHg 48%
13:00 +8°C° 0 mm 5 m/s 772 mmHg 46%
14:00 +8°C° 0 mm 6 m/s 772 mmHg 46%
15:00 +8°C° 0 mm 6 m/s 772 mmHg 46%
16:00 +8°C° 0 mm 6 m/s 772 mmHg 46%
17:00 +7°C° 0 mm 5 m/s 772 mmHg 51%
18:00 +6°C° 0 mm 4 m/s 772 mmHg 57%
19:00 +5°C° 0 mm 3 m/s 772 mmHg 63%
20:00 +4°C° 0 mm 3 m/s 772 mmHg 65%
21:00 +3°C° 0 mm 3 m/s 772 mmHg 67%
22:00 +3°C° 0 mm 3 m/s 773 mmHg 70%
23:00 +3°C° 0 mm 3 m/s 773 mmHg 72%

16 Abril, Sexta-feira

Tempo Temperatura Precipitação Vento Pressão Humidade
00:00 +2°C° 0 mm 3 m/s 773 mmHg 74%
01:00 +2°C° 0 mm 3 m/s 773 mmHg 76%
02:00 +2°C° 0 mm 3 m/s 773 mmHg 80%
03:00 +2°C° 0 mm 3 m/s 773 mmHg 85%
04:00 +1°C° 0 mm 3 m/s 773 mmHg 89%
05:00 +3°C° 0 mm 2 m/s 773 mmHg 86%
06:00 +4°C° 0 mm 2 m/s 774 mmHg 82%
07:00 +5°C° 0 mm 2 m/s 774 mmHg 79%
08:00 +5°C° 0 mm 3 m/s 774 mmHg 72%
09:00 +7°C° 0 mm 4 m/s 774 mmHg 65%
10:00 +9°C° 0 mm 5 m/s 774 mmHg 58%
11:00 +9°C° 0 mm 5 m/s 774 mmHg 56%
12:00 +10°C° 0 mm 5 m/s 773 mmHg 55%
13:00 +10°C° 0 mm 6 m/s 773 mmHg 53%
14:00 +10°C° 0 mm 6 m/s 773 mmHg 53%
15:00 +10°C° 0 mm 6 m/s 773 mmHg 52%
16:00 +9°C° 0 mm 6 m/s 772 mmHg 51%
17:00 +8°C° 0 mm 5 m/s 772 mmHg 57%
18:00 +7°C° 0 mm 4 m/s 773 mmHg 63%
19:00 +6°C° 0 mm 4 m/s 773 mmHg 69%
20:00 +5°C° 0 mm 4 m/s 773 mmHg 72%
21:00 +4°C° 0 mm 4 m/s 773 mmHg 75%
22:00 +3°C° 0 mm 3 m/s 773 mmHg 78%
23:00 +3°C° 0 mm 3 m/s 773 mmHg 78%
Mostrar mais

Necessitamos do seu Consentimento

A Meteoprog e os seus Fornecedores de Serviços podem armazenar e aceder a dados pessoais como cookies, identificadores do dispositivo ou outras tecnologias semelhantes existentes no seu dispositivo e processar estes dados para personalizar conteúdos e anúncios, assim como funcionalidades nas redes sociais e análise de tráfego.

  • Armazenar e/ou aceder a informações no seu dispositivo

    Os cookies, identificadores do dispositivo ou outras informações podem ser armazenados ou acedidos no seu dispositivo, para os fins acima indicados.

  • Anúncios e conteúdos personalizados, medição de anúncios e conteúdos, dados sobre o público-alvo e desenvolvimento de produtos

    Os anúncios e os conteúdos podem ser personalizados com base num perfil. Podem ser adicionados dados adicionais para uma maior personalização dos anúncios e dos conteúdos. A eficácia dos anúncios e dos conteúdos pode ser medida. Podem ser obtidas informações sobre o público que visualizou os anúncios e os conteúdos. Estes dados podem ser usados para desenvolver ou melhorar sistemas, softwares ou a experiência do utilizador.

Ao clicar em "Eu concordo”, permitirá o uso de cookies, identificadores do dispositivo e web beacons mencionados ou outras tecnologias semelhantes. As configurações do navegador do seu dispositivo podem ser alteradas.

Para certos fins, podem ser invocados interesses legítimos ao invés de consentimento. Pode ler mais informação sobre este assunto na nossa Política de Privacidade e Cookies.